Doha, Qatar

3:14 AM +03 on November 22, 2017 (GMT +0300)
Doha International

Weather History for OTBD - August, 2012

Change the Weather History Date:

Friday, August 31, 2012

  Actual Average Record
Temperature  
Mean Temperature 98 °F -  
Max Temperature 108 °F 101 °F 114 °F (2001)
Min Temperature 89 °F 80 °F 84 °F (1997)
Cooling Degree Days 34    
Growing Degree Days 48 (Base 50)    
Moisture  
Dew Point 74 °F    
Average Humidity 48    
Maximum Humidity 79    
Minimum Humidity 13    
Precipitation  
Precipitation 0.00 in 0.00 in - ()
Sea Level Pressure  
Sea Level Pressure 29.54 in    
Wind  
Wind Speed 4 mph ()    
Max Wind Speed 12 mph    
Max Gust Speed -    
Visibility 4.9 miles    
Events      
Averages and records for this station are not official NWS values.
T = Trace of Precipitation, MM = Missing Value Source: Averaged Metar Reports

Daily Weather History Graph

Daily Weather History Graph

Search for Another Location

Airport or City:

Trip Planner

Search our weather history database for the weather conditions in past years. The results will help you decide how hot, cold, wet, or windy it might be!

Date:

Astronomy

Aug. 31, 2012 Rise Set
Actual Time 5:14 AM +03 5:53 PM +03
Civil Twilight 4:50 AM +03 6:16 PM +03
Nautical Twilight 4:23 AM +03 6:44 PM +03
Astronomical Twilight 3:55 AM +03 7:11 PM +03
Moon 5:34 PM +03 (8/31) 4:50 AM +03 (8/31)
Length of Visible Light 13h 25m
Length of Day
12h 39m
Full, 100% of the Moon is Illuminated
Aug 31
Full
Aug 31
Full
Sep 8
Last Quarter
Sep 16
New
Sep 22
First Quarter

Hourly Weather History & Observations

Time (+03) Temp. Heat Index Dew Point Humidity Pressure Visibility Wind Dir Wind Speed Gust Speed Precip Events Conditions
12:00 AM 93.2 °F 113.6 °F 80.6 °F 67% 29.56 in - North 3.5 mph - N/A   Clear
12:30 AM 91.4 °F 111.0 °F 80.6 °F 71% 29.56 in 5.6 mi Variable 2.3 mph - N/A   Unknown
1:00 AM 91.4 °F 107.2 °F 78.8 °F 66% 29.56 in - North 3.5 mph - N/A   Clear
1:30 AM 93.2 °F 107.2 °F 77.0 °F 59% 29.53 in - NNW 3.5 mph - N/A   Clear
2:00 AM 93.2 °F 105.0 °F 75.2 °F 56% 29.53 in - Variable 2.3 mph - N/A   Clear
2:30 AM 93.2 °F 102.4 °F 73.4 °F 52% 29.53 in - NW 4.6 mph - N/A   Clear
3:00 AM 93 °F - 72 °F 42% 29.55 in 6 mi NW 3.5 mph - -  
3:00 AM 93.2 °F 102.4 °F 73.4 °F 52% 29.53 in - NW 3.5 mph - N/A   Clear
3:30 AM 93.2 °F 98.8 °F 69.8 °F 46% 29.53 in - NW 4.6 mph - N/A   Clear
4:00 AM 93.2 °F 98.8 °F 69.8 °F 46% 29.53 in - NW 4.6 mph - N/A   Clear
4:30 AM 93.2 °F 98.8 °F 69.8 °F 46% 29.56 in - Calm Calm - N/A   Clear
5:00 AM 89.6 °F 98.2 °F 73.4 °F 59% 29.56 in - Variable 1.2 mph - N/A   Clear
5:30 AM 89.6 °F 98.2 °F 73.4 °F 59% 29.56 in 5.0 mi Variable 2.3 mph - N/A   Unknown
6:00 AM 91.4 °F 98.4 °F 71.6 °F 52% 29.56 in - Variable 1.2 mph - N/A   Clear
6:30 AM 91.4 °F 98.4 °F 71.6 °F 52% 29.56 in - Variable 2.3 mph - N/A   Clear
7:00 AM 93.2 °F 102.4 °F 73.4 °F 52% 29.59 in 5.6 mi SW 4.6 mph - N/A   Unknown
7:30 AM 96.8 °F 100.7 °F 66.2 °F 37% 29.59 in - WNW 6.9 mph - N/A   Clear
8:00 AM 98.6 °F 98.5 °F 59.0 °F 27% 29.59 in - NW 5.8 mph - N/A   Clear
8:30 AM 100.4 °F 100.2 °F 59.0 °F 25% 29.59 in - WNW 4.6 mph - N/A   Clear
9:00 AM 103 °F - 56 °F 13% 29.62 in 6 mi WNW 4.6 mph - -  
9:00 AM 104.0 °F 102.9 °F 55.4 °F 20% 29.59 in - WNW 4.6 mph - N/A   Clear
9:30 AM 105.8 °F 108.3 °F 62.6 °F 24% 29.59 in - NW 5.8 mph - N/A   Clear
10:00 AM 105.8 °F 107.5 °F 60.8 °F 23% 29.59 in - NNW 5.8 mph - N/A   Clear
10:30 AM 107.6 °F 112.3 °F 64.4 °F 25% 29.59 in - NNE 6.9 mph - N/A   Clear
11:00 AM 109.4 °F 115.6 °F 66.2 °F 25% 29.59 in - NNE 6.9 mph - N/A   Clear
11:30 AM 105.8 °F 119.1 °F 73.4 °F 36% 29.56 in - East 9.2 mph - N/A   Clear
12:00 PM 107.6 °F 113.2 °F 66.2 °F 26% 29.56 in - East 9.2 mph - N/A   Clear
12:30 PM 104.0 °F 118.9 °F 75.2 °F 40% 29.53 in - East 11.5 mph - N/A   Clear
1:00 PM 104.0 °F 118.9 °F 75.2 °F 40% 29.53 in - East 9.2 mph - N/A   Clear
1:30 PM 102.2 °F 116.3 °F 75.2 °F 42% 29.53 in - East 8.1 mph - N/A   Clear
2:00 PM 104.0 °F 116.8 °F 73.4 °F 38% 29.50 in - East 6.9 mph - N/A   Clear
2:30 PM 104.0 °F 116.8 °F 73.4 °F 38% 29.50 in - East 8.1 mph - N/A   Clear
3:00 PM 104 °F - 68 °F 22% 29.52 in 6 mi ENE 9.2 mph - -  
3:00 PM 104.0 °F 110.5 °F 68.0 °F 31% 29.50 in - ENE 9.2 mph - N/A   Clear
3:30 PM 102.2 °F 111.7 °F 71.6 °F 37% 29.50 in - NE 8.1 mph - N/A   Clear
4:00 PM 102.2 °F 114.4 °F 73.4 °F 40% 29.50 in - NE 8.1 mph - N/A   Clear
4:30 PM 100.4 °F 111.9 °F 73.4 °F 42% 29.50 in - NE 6.9 mph - N/A   Clear
5:00 PM 100.4 °F 116.5 °F 77.0 °F 47% 29.50 in - ENE 5.8 mph - N/A   Clear
5:30 PM 98.6 °F 114.4 °F 77.0 °F 50% 29.50 in - NNE 6.9 mph - N/A   Clear
6:00 PM 98.6 °F 114.4 °F 77.0 °F 50% 29.50 in 5.6 mi NE 8.1 mph - N/A   Unknown
6:30 PM 96.8 °F 114.8 °F 78.8 °F 56% 29.50 in 5.6 mi NNE 5.8 mph - N/A   Unknown
7:00 PM 96.8 °F 118.6 °F 80.6 °F 60% 29.53 in 5.0 mi NE 5.8 mph - N/A   Unknown
7:30 PM 95.0 °F 119.6 °F 82.4 °F 67% 29.53 in 5.0 mi NNE 5.8 mph - N/A   Unknown
8:00 PM 95.0 °F 119.6 °F 82.4 °F 67% 29.53 in 5.0 mi North 3.5 mph - N/A   Unknown
8:30 PM 95.0 °F 119.6 °F 82.4 °F 67% 29.53 in 4.3 mi NNE 4.6 mph - N/A   Unknown
9:00 PM 94 °F - 85 °F 68% 29.55 in 4 mi North 4.6 mph - -   Haze
9:00 PM 93.2 °F 120.9 °F 84.2 °F 75% 29.53 in 4.3 mi North 4.6 mph - N/A   Unknown
9:30 PM 95.0 °F 123.7 °F 84.2 °F 71% 29.53 in 3.7 mi NNE 3.5 mph - N/A   Unknown
10:00 PM 93.2 °F 124.9 °F 86.0 °F 79% 29.53 in 3.7 mi Variable 2.3 mph - N/A   Unknown
10:30 PM 93.2 °F 117.1 °F 82.4 °F 71% 29.53 in 4.3 mi Variable 2.3 mph - N/A   Unknown
11:00 PM 93.2 °F 117.1 °F 82.4 °F 71% 29.53 in 4.3 mi SSW 4.6 mph - N/A   Unknown
11:30 PM 93.2 °F 113.6 °F 80.6 °F 67% 29.50 in 4.3 mi SW 4.6 mph - N/A   Unknown